Search for airport 
image banner adimage banner adimage banner ad
image banner ad

NV50 - Goldfield

Located in Goldfield, United States

ICAO - NV50, IATA -

Data provided by Airmate  

General information

Coordinates: N37°43'19" W117°14'11"
Elevation is 5616 feet MSL.
 
View others Airports in Nevada

Operational data

Special qualification required
Current time UTC:
Current local time:
Weather at : KTPH - Tonopah ( 40 km )
METAR: KTPH 130956Z AUTO 36008KT 10SM CLR 12/M12 A3005 RMK AO2 SLP100 T01221117
TAF: KTPH 130520Z 1306/1406 18010KT P6SM SKC FM130800 02007KT P6SM SKC FM131700 19015G25KT P6SM SKC
View NOTAMs / SUP AIP / TFR affecting this airport [VIEW]
Communications frequencies: [VIEW]

Runways:

RWY identifierQFULength (ft)Width (ft)SurfaceLDA (ft)
17315037GRAVEL
35315037GRAVEL

Airport contact information

Address: Goldfield United States

Satellite view of NV50